Wind_Speed
32 31 34 42 49 48 50 56 58 54 50 45 38 34 31 29 32 34 30 30 31 28 27 32 33 26 24 26 24 22 22 21 21 23 23 21 21 21 19 19 18 14 13 14 15 16 16 15 15 14 14 16 16 18 20 21 23 23 22 22 22 22 22
33 33 33 40 49 49 47 50 52 50 49 48 45 38 33 33 34 34 32 30 28 29 31 34 32 27 26 26 25 27 27 25 26 26 23 21 21 21 20 19 17 12 10 11 10 11 11 11 12 12 13 15 16 17 17 19 20 20 21 21 21 21 20
33 36 36 39 46 51 49 44 43 48 53 53 52 47 39 36 36 32 30 31 31 31 33 35 30 27 28 26 27 33 33 27 25 24 24 24 24 22 20 19 17 12 10 9 9 10 11 12 13 13 14 15 16 16 16 17 17 18 20 21 20 19 19
37 37 38 38 41 47 52 48 42 44 53 56 54 51 44 37 36 34 31 31 30 28 31 34 27 21 24 26 30 37 35 24 19 21 23 23 24 23 21 18 15 12 11 12 12 13 14 15 16 15 15 15 15 15 16 16 17 19 20 20 20 19 20
42 38 36 37 38 42 50 56 51 44 47 53 50 48 47 42 37 36 34 33 29 25 27 29 20 16 22 26 30 38 36 24 20 25 28 26 25 22 20 18 14 13 14 15 15 16 17 19 18 17 16 16 16 15 15 16 17 19 20 22 22 21 20
44 40 33 35 37 40 45 54 59 51 43 45 50 53 50 43 41 39 35 34 32 25 25 26 22 20 20 21 22 27 26 18 20 26 30 30 28 24 21 21 17 17 18 17 18 18 19 20 19 19 19 17 16 16 16 17 17 18 21 22 21 20 19
40 40 35 35 37 38 40 44 53 57 49 42 48 56 51 43 45 43 35 35 32 24 21 24 27 26 22 19 21 23 22 20 25 26 23 26 27 25 25 24 19 18 21 21 21 19 19 20 20 20 20 19 18 17 16 15 14 17 20 20 20 19 18
32 34 37 37 36 37 40 42 46 54 58 51 44 49 50 50 49 42 38 41 36 25 22 24 28 30 28 26 26 26 25 23 22 19 18 27 29 26 28 25 18 19 24 25 25 23 21 21 19 19 20 21 20 18 16 13 13 17 18 17 19 19 17
33 33 38 40 39 40 43 46 48 51 58 58 51 47 50 55 51 41 41 46 39 30 29 29 29 30 28 27 27 26 25 25 22 19 25 34 34 31 31 27 21 22 25 27 27 26 24 22 21 19 20 22 22 19 18 15 16 18 17 14 16 18 18
40 40 42 41 39 41 43 44 49 52 52 53 55 55 56 56 51 47 48 46 37 33 35 35 36 36 29 22 23 26 28 28 27 31 33 31 29 31 31 27 26 24 24 26 27 26 24 22 22 21 21 23 23 21 19 18 18 19 15 11 13 16 18
41 40 38 35 34 37 39 39 43 49 47 44 50 60 66 61 52 50 51 46 39 36 36 36 37 39 36 28 27 28 27 23 23 30 34 27 23 28 30 27 25 22 22 23 24 24 22 20 22 23 22 24 25 22 19 18 20 20 15 12 14 17 18
39 34 31 32 33 32 32 34 38 42 44 44 46 53 61 62 56 52 48 45 45 43 37 34 35 36 37 35 33 33 31 25 19 25 33 31 26 28 31 27 21 20 21 21 22 23 22 21 22 23 23 25 26 23 19 19 20 20 16 14 16 18 19
39 35 33 33 33 30 29 30 33 37 41 45 47 48 48 52 57 57 52 46 47 46 41 37 36 35 35 34 35 38 39 36 32 29 30 30 29 31 33 28 22 21 21 21 21 21 22 22 23 23 24 26 26 24 21 19 21 20 18 17 17 19 19
40 39 38 36 32 28 28 31 32 33 35 39 45 48 47 48 52 57 55 49 49 50 48 46 42 37 33 33 36 37 37 40 42 41 36 32 31 32 31 29 26 24 22 21 21 21 22 23 23 24 26 27 26 25 22 21 22 22 21 20 20 20 18
42 41 38 37 35 31 30 31 32 31 31 33 37 42 46 49 51 53 52 50 52 52 49 49 49 44 38 34 34 37 38 41 41 41 42 40 37 34 31 30 29 27 25 24 22 22 23 24 24 26 27 27 27 25 23 22 23 24 23 21 21 20 16
44 42 38 38 38 36 36 37 35 34 33 33 34 36 40 45 50 52 53 55 57 52 46 44 45 46 48 46 40 37 40 42 41 43 45 42 38 38 35 32 32 31 29 27 24 23 24 25 26 27 27 28 28 27 25 25 25 26 25 23 23 19 14
43 40 37 36 37 39 42 41 37 36 36 35 35 35 36 40 44 49 55 61 60 53 50 50 45 39 43 51 54 50 46 43 43 46 45 38 37 40 37 31 32 33 32 29 26 24 26 27 27 28 28 29 29 28 28 27 27 28 26 26 25 20 15
43 41 38 35 38 42 41 36 34 34 35 36 37 37 37 39 40 42 46 53 54 52 55 61 58 49 43 46 53 56 51 46 45 45 43 38 38 41 37 33 34 34 32 29 28 28 29 29 29 30 29 29 30 30 30 29 29 29 28 28 25 20 19
45 44 41 39 40 40 35 32 33 33 33 36 38 38 39 40 39 39 40 41 42 43 45 51 57 59 58 55 56 55 52 51 51 50 47 42 40 41 40 38 37 35 30 29 30 31 31 30 31 31 30 29 31 33 32 31 31 30 30 29 26 21 22
48 47 46 44 41 37 35 36 35 32 30 33 36 39 40 39 39 40 40 40 38 35 35 36 39 46 51 55 60 62 58 57 58 54 49 46 44 44 44 43 41 35 30 30 32 33 32 32 32 31 31 32 34 34 33 33 33 32 31 31 29 27 29
47 48 47 44 41 39 40 40 38 35 34 36 39 42 42 39 38 39 39 41 40 38 39 40 33 29 33 42 53 60 60 58 57 53 47 46 47 47 46 47 45 38 32 32 34 34 33 33 32 31 32 34 35 36 36 36 36 35 34 33 32 32 34
45 46 45 43 43 43 41 42 42 40 40 41 40 39 37 36 37 37 36 38 39 37 40 43 36 31 36 43 46 50 53 54 55 52 47 45 46 46 46 48 47 41 35 33 34 35 35 34 32 32 33 35 38 39 39 39 38 38 37 36 36 36 38
46 47 46 44 43 42 41 43 44 42 42 42 39 37 36 34 35 36 32 34 37 37 37 39 37 38 45 48 44 42 45 49 51 50 47 43 45 47 47 48 47 42 37 35 35 36 36 35 33 33 35 37 39 40 40 40 40 40 39 38 38 39 41
49 49 48 45 43 43 43 44 43 42 43 42 40 40 38 35 37 39 36 34 36 37 37 38 39 42 45 48 47 45 45 46 47 47 45 41 43 46 48 50 49 44 41 39 37 37 38 36 35 35 36 37 38 39 40 41 41 41 41 41 42 42 43
53 51 48 46 45 45 44 42 40 41 41 40 40 43 42 38 38 40 39 38 37 36 37 40 40 39 39 41 44 46 47 47 46 45 43 40 42 47 50 51 50 46 45 43 40 39 41 40 38 37 37 37 39 41 43 44 44 45 45 44 45 45 45
55 54 51 48 46 45 43 40 37 37 37 37 40 41 40 38 37 36 38 40 40 39 40 42 42 39 35 36 41 44 46 47 45 44 43 42 43 49 52 52 50 48 48 48 46 44 43 42 41 40 40 40 42 44 46 47 47 47 46 47 47 47 47
53 53 53 52 49 47 45 41 38 37 37 38 39 37 35 34 34 35 37 39 42 41 39 41 46 44 37 36 41 44 44 45 44 43 42 43 45 49 51 51 50 50 52 52 49 45 43 43 43 43 43 43 45 46 48 48 49 50 50 51 51 50 51
50 50 52 52 50 49 46 41 38 37 37 37 37 37 37 35 33 33 35 37 40 41 39 39 42 40 36 37 42 44 43 43 43 41 41 42 45 49 52 54 54 54 54 53 50 48 45 43 43 43 44 45 47 48 49 50 52 53 52 52 51 51 53
49 50 50 50 51 49 44 40 40 40 38 37 38 39 41 38 33 33 35 36 37 38 37 35 34 34 35 39 41 42 43 43 43 42 42 44 47 51 54 57 56 54 52 52 51 50 47 44 44 44 45 47 48 49 50 51 52 52 52 52 52 52 52
50 51 52 52 51 48 42 40 43 44 40 38 39 42 43 39 35 34 37 38 37 36 35 34 33 33 33 36 39 41 43 44 44 43 43 44 48 52 54 55 54 53 51 50 50 49 48 48 47 46 46 47 48 49 51 52 53 53 52 53 52 49 46
52 50 52 54 52 48 43 40 39 39 40 40 41 43 43 40 37 37 38 39 39 38 37 35 34 33 31 32 37 42 44 44 43 41 42 43 45 49 51 52 52 52 50 48 48 48 49 49 48 49 49 49 49 50 51 51 52 52 52 52 50 44 41
52 50 49 51 52 49 45 41 37 36 40 41 42 43 43 42 41 39 38 39 38 37 36 33 31 30 30 30 35 40 43 43 41 38 39 40 42 45 49 50 51 51 48 46 47 47 48 49 49 50 50 50 50 50 49 49 50 52 52 51 48 44 42
51 51 48 47 49 48 45 42 39 38 40 41 42 43 41 41 41 39 37 38 35 32 32 30 29 30 31 31 33 36 39 40 38 37 36 37 39 43 47 49 50 50 49 48 48 48 48 49 50 49 49 50 51 51 50 50 51 51 51 48 44 43 43
43 46 45 42 42 42 41 40 39 39 40 42 43 43 40 38 38 37 37 37 35 31 29 29 31 33 34 35 35 35 36 37 37 36 35 36 38 42 45 48 50 51 52 51 49 49 49 49 50 50 50 51 52 51 52 52 51 51 51 48 43 42 42
37 37 37 35 34 35 37 38 38 38 39 40 41 41 39 38 37 36 36 37 35 33 33 33 34 35 36 37 37 35 36 37 37 36 36 37 38 42 45 48 51 53 54 53 51 50 49 49 50 50 50 50 51 52 54 54 53 51 51 48 44 43 43
37 33 31 29 29 30 32 32 33 35 36 37 38 39 38 38 37 37 38 38 36 35 35 35 35 37 38 38 38 37 37 38 38 39 40 41 43 45 47 49 51 52 52 52 51 50 50 50 50 50 50 51 52 54 55 55 54 52 50 47 44 43 45
37 33 30 29 29 29 30 30 31 32 33 33 35 38 39 40 40 39 39 38 37 37 37 36 36 38 39 40 39 39 38 39 41 42 43 43 44 46 47 48 50 51 52 52 52 51 51 51 51 51 52 53 54 54 54 54 53 50 45 42 42 44 47
Wind_Direction
243 234 227 227 224 223 226 227 224 224 229 227 222 228 232 232 238 237 234 242 246 245 244 239 237 238 225 221 232 232 226 233 231 227 230 234 238 237 234 240 249 255 259 260 260 258 260 263 262 262 262 261 257 253 250 249 246 243 241 242 244 246 250
245 239 227 225 226 221 222 229 229 226 228 226 223 225 229 230 235 238 235 239 243 241 247 249 243 238 230 224 230 233 226 224 227 231 237 239 238 234 233 238 240 238 244 250 253 258 264 269 270 271 274 270 261 255 251 249 247 243 239 239 241 245 250
244 242 233 224 226 223 219 225 230 225 222 224 222 221 225 230 233 236 236 236 236 234 240 248 245 235 234 235 236 237 235 231 230 235 241 243 240 232 225 230 231 228 242 256 264 274 278 281 284 286 285 278 267 259 251 245 242 238 236 239 241 245 250
245 242 240 230 228 228 221 218 223 224 223 224 224 223 224 226 230 234 236 236 234 230 237 249 249 237 237 237 231 233 233 230 234 241 239 235 234 225 214 217 225 229 243 256 261 268 275 278 283 288 290 286 273 261 254 245 237 232 233 238 242 245 250
249 244 243 240 234 233 226 218 216 220 225 225 225 228 228 224 227 231 234 238 236 227 234 247 244 230 241 240 229 233 233 216 213 237 246 242 232 226 218 214 223 237 244 252 256 257 261 267 275 283 289 288 274 262 256 246 237 233 232 234 237 242 245
252 252 246 243 238 233 231 226 220 215 220 224 221 223 226 225 227 228 230 238 239 231 231 242 238 222 231 238 226 230 233 212 207 233 255 253 234 226 229 219 216 235 244 250 254 252 253 258 267 277 283 284 275 265 257 248 240 236 234 234 235 237 237
248 255 249 243 240 234 228 230 229 220 217 222 223 223 222 224 230 228 227 235 236 229 225 234 238 228 219 223 218 213 211 206 210 220 244 254 235 222 229 225 214 229 242 246 248 248 250 254 262 271 277 282 277 265 256 252 249 243 239 235 232 233 233
234 248 250 243 240 235 224 222 228 226 220 218 224 227 222 224 230 226 226 233 230 220 216 222 233 229 212 207 213 211 207 211 215 211 224 244 240 230 231 229 217 225 239 245 247 248 250 255 262 268 273 279 277 265 255 257 256 250 247 237 228 232 236
224 229 242 244 240 237 231 225 226 228 225 220 222 228 222 221 227 225 225 234 231 222 221 221 230 234 218 206 213 217 214 215 216 211 223 237 238 229 226 225 220 226 239 247 251 253 253 257 264 265 267 274 277 268 257 258 258 254 256 247 229 231 239
232 233 243 249 244 238 237 232 224 225 228 222 220 227 226 221 226 230 228 230 231 229 230 226 229 238 232 209 204 215 221 223 216 209 217 229 226 213 212 216 220 226 237 245 250 256 255 256 260 260 262 269 275 270 258 256 260 258 256 243 223 223 234
237 241 245 245 240 235 239 241 230 224 225 221 218 226 229 224 226 234 232 225 223 227 231 232 232 237 238 223 206 206 211 223 235 229 226 226 217 205 203 209 220 229 236 240 246 252 251 248 251 254 258 265 272 271 260 256 260 261 253 230 217 222 235
233 233 231 231 231 230 233 241 239 228 221 219 220 226 231 228 227 235 236 224 217 217 219 229 235 236 238 231 216 209 204 201 221 239 235 229 222 212 205 209 223 235 237 237 239 243 244 242 245 250 256 263 269 270 261 255 258 262 257 239 229 235 249
236 229 224 226 228 225 221 228 237 234 225 220 221 225 231 230 225 230 235 229 224 220 214 219 229 232 236 232 221 216 214 210 216 230 235 233 230 222 212 211 222 230 232 236 238 239 241 242 244 250 256 261 267 268 261 256 258 261 260 254 250 255 266
238 235 231 228 227 223 221 222 227 234 232 227 225 224 225 228 226 228 233 235 237 236 226 218 219 221 227 237 237 228 219 218 224 233 236 234 233 229 220 214 217 222 224 231 239 242 243 244 246 252 257 262 267 268 262 256 256 258 260 262 264 268 276
233 236 235 230 227 222 223 227 225 228 233 233 233 232 228 226 226 228 231 232 234 237 232 224 224 222 218 223 239 242 232 222 223 230 232 230 228 229 225 217 215 219 221 224 233 243 246 248 250 253 258 263 266 266 263 257 256 260 263 265 268 272 278
230 234 234 230 228 224 222 225 225 224 228 230 230 235 236 232 229 228 230 232 232 234 232 228 230 233 228 220 223 236 234 223 220 226 229 228 228 229 227 221 219 221 224 225 229 240 247 250 252 255 259 263 264 264 262 258 259 264 267 268 270 273 277
229 232 234 230 229 229 227 230 230 224 224 229 230 230 233 234 233 231 232 234 235 235 233 230 228 232 236 229 224 228 230 224 221 227 228 226 229 232 230 225 225 226 228 228 229 235 244 249 252 255 259 263 265 264 261 260 262 266 269 271 274 275 276
227 228 232 230 230 231 232 239 243 233 223 225 231 234 235 234 233 235 238 239 238 236 237 238 236 233 234 234 230 231 233 231 227 230 233 232 233 237 234 227 227 228 226 227 229 232 238 244 249 252 255 260 263 261 260 261 264 267 271 275 278 281 282
226 226 228 228 230 232 233 236 239 238 232 225 224 231 238 239 237 236 238 240 241 240 243 247 245 238 233 235 239 239 240 242 239 236 237 236 235 239 237 227 224 225 223 223 229 233 236 241 245 249 252 256 258 258 260 263 265 268 271 275 279 284 287
225 226 227 229 230 231 234 235 232 233 235 229 224 227 231 235 238 239 237 236 237 237 238 241 246 247 243 242 244 245 243 245 244 239 236 235 232 233 233 227 223 224 222 223 229 234 237 240 243 247 250 253 254 256 258 261 263 266 269 274 279 283 286
224 226 228 232 233 230 232 235 232 229 229 226 226 228 225 223 227 233 237 237 233 232 234 232 231 242 245 240 241 243 241 241 242 239 237 237 235 233 232 230 227 224 222 225 229 232 235 238 241 245 249 253 254 254 256 259 262 265 268 274 279 283 287
224 226 227 230 232 230 231 234 231 229 231 231 232 234 231 223 220 223 232 236 234 233 239 239 232 227 230 234 240 242 241 241 242 241 239 240 240 238 236 234 231 224 219 224 230 232 235 239 242 244 246 249 251 253 255 259 261 263 266 272 279 283 286
223 225 226 229 231 231 231 232 230 229 232 234 236 240 239 230 223 222 225 230 232 232 236 239 236 229 229 235 243 244 241 240 240 239 238 238 238 239 236 234 232 223 215 221 230 234 236 238 240 243 244 245 249 252 255 258 261 263 266 271 276 279 283
223 226 227 228 231 233 232 230 229 231 233 235 238 240 239 233 228 225 224 223 224 226 231 235 238 239 238 239 242 243 241 240 237 235 234 232 233 235 232 231 230 222 213 216 225 233 236 235 236 240 243 247 252 256 260 263 265 267 269 272 274 276 278
224 227 227 227 229 232 233 232 233 234 236 238 240 241 241 238 234 232 231 228 220 217 223 229 233 240 242 236 235 237 235 234 234 231 229 227 229 231 229 228 228 221 213 215 222 228 233 234 234 237 242 248 253 257 260 263 265 267 269 272 273 274 274
226 228 229 230 232 233 233 234 236 239 242 243 241 241 243 243 243 242 238 233 225 221 222 223 225 232 235 229 229 233 232 230 232 229 226 224 225 227 226 225 223 217 213 215 219 223 230 234 234 235 238 243 247 252 256 259 262 266 268 269 271 271 272
226 229 231 232 233 234 233 232 236 242 247 248 246 244 244 245 245 246 243 238 235 233 230 227 227 233 236 230 228 230 230 228 227 226 224 221 220 221 221 220 218 215 215 216 218 221 228 233 235 236 237 240 244 248 252 256 259 262 263 265 268 269 269
228 229 232 233 233 234 234 234 240 246 247 247 247 246 245 245 244 245 246 245 243 240 235 232 232 236 237 232 227 227 227 226 223 221 220 217 215 216 216 216 215 216 216 217 219 222 227 233 237 239 240 242 244 247 250 253 256 259 263 265 266 267 269
229 229 232 233 233 235 237 238 242 246 244 242 244 244 243 244 246 249 250 248 244 242 239 237 237 236 233 226 222 221 222 222 220 217 216 214 213 214 216 216 216 217 218 219 221 224 228 233 238 240 242 243 245 247 250 252 255 259 262 265 266 268 272
228 227 229 232 234 237 239 239 239 241 242 240 241 243 243 242 244 250 251 246 239 238 239 237 236 236 232 225 222 223 224 223 220 217 215 213 214 216 217 217 217 218 219 222 224 227 229 233 237 240 243 244 247 249 251 253 256 259 261 262 263 266 270
225 227 228 232 235 236 237 238 239 242 245 243 242 244 245 243 242 245 246 243 237 233 232 232 234 236 236 229 224 225 228 227 223 218 215 215 216 218 219 218 219 220 222 225 228 230 231 234 238 241 243 246 248 250 253 256 259 261 261 261 262 265 270
222 226 228 231 235 237 238 241 244 246 246 245 244 245 245 244 245 245 242 240 236 227 223 227 231 234 235 232 227 226 228 228 225 220 217 217 218 219 219 218 219 221 224 228 230 232 234 236 239 242 245 247 249 250 253 256 257 260 261 261 265 271 275
220 225 228 232 236 238 239 241 244 245 243 242 243 243 242 243 245 244 240 238 234 222 215 218 225 227 227 229 229 229 228 224 221 219 218 218 221 221 219 218 219 221 224 228 231 233 236 238 241 243 245 246 247 249 251 252 254 257 260 263 268 274 276
218 222 226 231 234 236 237 240 243 243 242 242 242 242 242 241 241 240 239 238 235 228 224 226 228 225 222 222 225 226 224 220 216 216 217 219 221 221 219 219 220 222 225 229 231 234 236 238 240 242 243 245 247 249 251 252 255 257 260 265 271 275 275
220 219 221 225 229 231 233 237 242 243 243 244 243 241 240 238 236 235 237 237 235 233 234 236 233 225 219 219 219 218 216 214 212 213 216 219 221 221 220 220 221 222 225 228 231 234 236 238 240 241 243 245 248 249 252 255 257 259 261 266 271 274 275
221 220 219 220 223 227 231 237 244 247 245 241 238 236 235 233 229 228 231 234 235 235 234 233 230 224 220 217 214 211 209 211 213 214 214 215 217 219 220 220 221 221 223 227 230 233 236 237 239 240 242 244 247 250 252 254 256 259 261 264 267 270 273
218 220 221 223 226 230 235 240 246 249 246 239 233 231 231 229 227 225 225 228 231 234 233 230 226 224 221 216 210 207 207 209 212 213 210 207 208 210 213 216 219 220 222 225 228 231 234 236 238 240 243 245 246 249 252 255 258 260 261 262 264 268 270
Height
5832 5835 5838 5840 5843 5846 5848 5848 5849 5854 5860 5863 5865 5867 5869 5871 5869 5867 5870 5869 5869 5872 5873 5872 5873 5874 5875 5877 5880 5882 5885 5886 5888 5888 5884 5882 5883 5884 5886 5888 5889 5889 5890 5892 5893 5894 5895 5895 5896 5896 5896 5896 5896 5896 5896 5897 5897 5899 5900 5901 5901 5901 5902
5827 5829 5832 5834 5836 5842 5844 5843 5848 5857 5860 5859 5860 5863 5864 5865 5863 5863 5866 5868 5869 5871 5871 5868 5870 5872 5872 5872 5876 5878 5881 5884 5886 5883 5879 5879 5882 5882 5884 5886 5886 5887 5888 5890 5891 5892 5893 5893 5894 5894 5894 5894 5894 5894 5894 5895 5895 5896 5897 5898 5898 5898 5899
5822 5823 5826 5828 5830 5834 5839 5842 5848 5852 5852 5850 5852 5855 5858 5859 5859 5861 5864 5864 5865 5869 5869 5866 5866 5870 5870 5870 5872 5874 5876 5879 5881 5879 5876 5877 5880 5879 5880 5883 5884 5885 5886 5888 5889 5890 5890 5891 5892 5892 5892 5892 5892 5892 5892 5893 5893 5893 5894 5894 5895 5896 5897
5816 5817 5819 5824 5826 5827 5833 5838 5842 5843 5844 5844 5846 5849 5853 5855 5856 5858 5860 5860 5860 5864 5866 5864 5863 5866 5868 5868 5869 5870 5873 5877 5880 5880 5877 5874 5875 5876 5878 5880 5881 5883 5884 5886 5887 5888 5888 5889 5890 5890 5890 5890 5890 5890 5890 5890 5891 5891 5891 5892 5892 5893 5894
5808 5813 5816 5820 5823 5823 5825 5828 5832 5836 5838 5841 5845 5848 5848 5851 5853 5854 5856 5856 5856 5861 5864 5862 5862 5865 5867 5866 5866 5867 5870 5875 5880 5881 5878 5873 5873 5874 5875 5875 5877 5880 5882 5883 5885 5886 5886 5887 5888 5888 5888 5888 5888 5888 5888 5888 5888 5889 5889 5889 5889 5891 5891
5802 5809 5813 5815 5818 5818 5820 5822 5825 5830 5835 5837 5840 5840 5842 5846 5848 5850 5852 5852 5854 5858 5861 5861 5861 5863 5865 5864 5864 5866 5869 5874 5878 5879 5876 5871 5871 5873 5873 5872 5873 5876 5879 5881 5882 5883 5884 5885 5886 5886 5887 5887 5886 5886 5886 5886 5886 5886 5886 5886 5887 5888 5889
5798 5803 5807 5809 5811 5813 5816 5818 5821 5826 5830 5832 5832 5832 5838 5844 5843 5845 5848 5848 5850 5855 5858 5860 5859 5860 5862 5864 5864 5865 5868 5872 5874 5876 5875 5870 5869 5871 5872 5871 5870 5872 5876 5878 5879 5881 5882 5882 5884 5884 5885 5885 5885 5885 5884 5884 5885 5884 5883 5884 5885 5885 5886
5796 5798 5800 5802 5804 5807 5809 5811 5815 5818 5821 5826 5829 5830 5836 5839 5837 5840 5843 5841 5845 5851 5854 5855 5854 5853 5857 5860 5861 5862 5865 5868 5870 5872 5873 5869 5867 5869 5870 5870 5869 5870 5873 5875 5876 5878 5880 5880 5882 5882 5883 5883 5882 5883 5883 5883 5883 5881 5880 5882 5884 5884 5885
5792 5792 5793 5795 5798 5800 5801 5805 5808 5810 5813 5820 5825 5826 5830 5830 5830 5835 5837 5835 5841 5847 5848 5849 5848 5847 5850 5854 5857 5860 5862 5864 5867 5870 5868 5864 5863 5866 5867 5867 5868 5869 5871 5872 5873 5875 5877 5878 5879 5880 5881 5880 5880 5880 5881 5881 5880 5879 5879 5881 5882 5883 5883
5784 5786 5788 5791 5793 5794 5796 5800 5803 5804 5807 5814 5819 5820 5820 5821 5825 5830 5829 5831 5839 5843 5843 5844 5843 5843 5846 5851 5854 5858 5859 5859 5860 5862 5861 5860 5861 5863 5864 5865 5866 5867 5869 5870 5871 5872 5874 5876 5876 5877 5878 5878 5878 5878 5878 5878 5878 5877 5878 5880 5881 5881 5882
5780 5783 5786 5788 5789 5790 5792 5795 5798 5800 5803 5809 5814 5813 5810 5815 5822 5822 5822 5828 5836 5839 5839 5839 5840 5841 5843 5847 5850 5852 5854 5855 5856 5856 5855 5857 5858 5858 5861 5863 5864 5865 5866 5867 5869 5870 5871 5872 5873 5874 5875 5875 5875 5876 5876 5876 5875 5874 5877 5879 5880 5880 5880
5775 5778 5782 5784 5784 5786 5789 5791 5793 5795 5799 5804 5807 5805 5805 5813 5818 5816 5817 5824 5828 5831 5835 5836 5838 5839 5840 5842 5845 5846 5847 5850 5853 5852 5849 5852 5856 5856 5857 5859 5860 5862 5864 5865 5867 5868 5868 5869 5870 5871 5872 5872 5872 5873 5874 5874 5872 5872 5875 5878 5879 5878 5877
5770 5773 5776 5778 5780 5783 5786 5788 5789 5790 5793 5797 5799 5801 5804 5808 5811 5811 5815 5819 5820 5825 5830 5832 5834 5836 5837 5839 5841 5841 5842 5844 5847 5846 5846 5850 5854 5852 5851 5853 5855 5858 5860 5862 5864 5865 5866 5866 5867 5868 5869 5869 5869 5870 5871 5871 5870 5870 5872 5874 5875 5874 5875
5764 5766 5770 5773 5775 5779 5782 5785 5786 5787 5788 5790 5792 5796 5800 5802 5804 5807 5812 5815 5816 5819 5824 5827 5829 5832 5835 5837 5837 5838 5840 5841 5842 5843 5845 5848 5849 5848 5847 5849 5851 5853 5855 5857 5859 5861 5862 5863 5864 5865 5865 5866 5866 5867 5868 5869 5868 5868 5869 5871 5871 5871 5874
5758 5760 5765 5768 5769 5773 5777 5779 5781 5783 5785 5787 5788 5790 5793 5796 5798 5802 5806 5809 5810 5812 5817 5822 5824 5825 5829 5833 5834 5834 5836 5837 5839 5841 5841 5843 5844 5844 5844 5846 5848 5849 5850 5851 5854 5856 5858 5860 5861 5861 5862 5862 5863 5864 5865 5865 5865 5865 5866 5867 5868 5869 5871
5752 5755 5759 5761 5764 5767 5769 5771 5775 5778 5781 5783 5785 5786 5788 5789 5792 5796 5798 5798 5801 5807 5812 5816 5818 5819 5822 5826 5829 5830 5830 5832 5835 5835 5836 5839 5841 5840 5841 5843 5844 5846 5847 5847 5849 5853 5855 5856 5857 5858 5858 5859 5860 5860 5861 5862 5862 5862 5863 5865 5865 5866 5868
5747 5751 5753 5756 5759 5759 5758 5762 5766 5770 5774 5778 5780 5782 5784 5785 5787 5788 5789 5790 5796 5803 5804 5807 5811 5814 5815 5818 5822 5824 5825 5828 5830 5829 5832 5837 5838 5837 5839 5841 5842 5843 5843 5844 5846 5849 5851 5852 5854 5855 5855 5855 5856 5857 5858 5858 5859 5860 5860 5862 5862 5863 5865
5743 5746 5748 5751 5751 5749 5753 5759 5762 5763 5767 5771 5774 5777 5779 5781 5782 5783 5784 5786 5792 5795 5795 5797 5803 5808 5810 5811 5814 5817 5820 5823 5825 5827 5830 5833 5834 5834 5836 5839 5839 5839 5840 5841 5842 5845 5847 5849 5850 5851 5852 5853 5853 5854 5854 5855 5856 5857 5858 5858 5859 5860 5862
5737 5740 5742 5742 5742 5745 5752 5757 5757 5758 5760 5763 5766 5770 5773 5776 5777 5779 5781 5783 5786 5789 5790 5792 5795 5799 5802 5804 5806 5811 5815 5817 5819 5822 5825 5828 5830 5831 5833 5835 5836 5835 5836 5838 5839 5841 5843 5845 5846 5847 5849 5850 5851 5850 5851 5853 5854 5855 5855 5856 5856 5858 5859
5732 5734 5734 5734 5739 5745 5748 5748 5750 5753 5755 5757 5759 5761 5764 5769 5772 5774 5775 5778 5781 5785 5787 5788 5788 5790 5794 5798 5800 5803 5807 5809 5811 5814 5819 5822 5824 5825 5827 5830 5831 5831 5833 5835 5837 5838 5840 5841 5842 5844 5846 5847 5847 5848 5849 5850 5851 5852 5853 5853 5853 5855 5856
5726 5728 5730 5733 5736 5740 5741 5741 5744 5747 5747 5749 5749 5749 5752 5758 5763 5767 5770 5772 5775 5779 5781 5781 5783 5787 5790 5790 5791 5794 5800 5803 5805 5809 5813 5816 5817 5819 5821 5824 5826 5828 5830 5832 5833 5835 5836 5837 5839 5840 5842 5843 5844 5844 5845 5846 5848 5849 5850 5850 5850 5851 5852
5721 5723 5726 5728 5730 5733 5735 5736 5738 5740 5740 5741 5742 5743 5746 5751 5755 5760 5765 5767 5770 5774 5775 5775 5779 5784 5783 5780 5783 5790 5795 5797 5800 5804 5808 5812 5813 5815 5817 5820 5822 5824 5826 5828 5830 5831 5832 5833 5835 5836 5838 5839 5840 5841 5842 5843 5844 5846 5846 5847 5847 5848 5849
5715 5717 5720 5723 5725 5727 5729 5730 5732 5735 5736 5738 5741 5743 5745 5749 5752 5753 5757 5761 5765 5769 5770 5771 5774 5775 5772 5773 5780 5787 5789 5790 5793 5798 5803 5807 5809 5810 5812 5815 5818 5820 5822 5824 5825 5827 5828 5830 5831 5832 5834 5835 5836 5837 5838 5840 5841 5842 5843 5844 5844 5845 5845
5710 5712 5715 5718 5720 5721 5722 5724 5728 5730 5732 5735 5738 5738 5740 5744 5746 5746 5747 5751 5755 5762 5765 5767 5767 5765 5764 5769 5775 5779 5781 5783 5786 5791 5796 5800 5803 5805 5807 5810 5813 5815 5817 5819 5821 5823 5824 5826 5828 5829 5830 5831 5832 5834 5835 5836 5837 5838 5839 5840 5840 5841 5841
5705 5707 5710 5713 5716 5716 5717 5720 5724 5726 5728 5730 5732 5732 5734 5738 5740 5741 5742 5743 5746 5752 5757 5760 5762 5761 5760 5762 5767 5770 5773 5775 5779 5784 5790 5794 5797 5799 5801 5804 5807 5810 5812 5814 5816 5818 5819 5821 5823 5825 5826 5828 5829 5830 5831 5832 5833 5834 5834 5835 5836 5836 5836
5700 5703 5706 5709 5711 5711 5712 5716 5719 5721 5723 5724 5726 5728 5731 5733 5736 5738 5740 5740 5741 5743 5746 5750 5754 5754 5753 5754 5759 5762 5764 5768 5773 5779 5783 5787 5790 5792 5794 5798 5802 5804 5807 5808 5810 5813 5815 5817 5819 5821 5823 5824 5825 5826 5827 5828 5829 5829 5830 5830 5830 5831 5831
5696 5699 5701 5704 5706 5706 5708 5712 5715 5717 5719 5719 5721 5725 5727 5728 5731 5733 5734 5736 5737 5737 5739 5742 5744 5745 5746 5748 5752 5754 5757 5761 5767 5772 5776 5780 5783 5785 5789 5794 5796 5798 5800 5802 5806 5809 5812 5813 5814 5816 5818 5820 5821 5822 5823 5823 5824 5824 5824 5825 5825 5825 5825
5693 5695 5696 5698 5700 5699 5703 5709 5712 5714 5716 5716 5717 5720 5722 5722 5725 5727 5728 5730 5732 5733 5734 5735 5736 5738 5741 5743 5746 5748 5752 5756 5761 5766 5770 5774 5776 5779 5783 5786 5788 5791 5795 5798 5802 5805 5807 5808 5811 5813 5814 5815 5816 5816 5817 5818 5818 5819 5819 5819 5819 5819 5819
5688 5690 5691 5692 5693 5695 5700 5707 5708 5708 5710 5713 5714 5714 5714 5716 5720 5722 5723 5724 5727 5728 5728 5730 5733 5734 5735 5738 5740 5742 5745 5750 5755 5760 5763 5766 5769 5773 5776 5779 5783 5787 5791 5795 5798 5800 5803 5805 5807 5808 5809 5810 5810 5811 5812 5813 5813 5814 5814 5814 5814 5815 5815
5680 5683 5685 5686 5688 5692 5696 5700 5701 5702 5704 5708 5710 5709 5709 5712 5715 5717 5717 5717 5718 5720 5722 5725 5727 5727 5727 5730 5733 5736 5740 5744 5748 5753 5757 5761 5765 5769 5772 5776 5780 5784 5787 5791 5793 5796 5799 5800 5801 5803 5804 5804 5805 5806 5807 5807 5808 5809 5809 5809 5809 5810 5811
5673 5676 5679 5680 5682 5687 5690 5693 5697 5700 5701 5703 5705 5705 5705 5706 5708 5710 5712 5711 5710 5711 5713 5716 5718 5718 5720 5724 5728 5732 5736 5739 5744 5750 5754 5758 5762 5765 5769 5773 5776 5780 5783 5786 5789 5791 5793 5795 5796 5798 5798 5799 5800 5802 5803 5804 5804 5804 5804 5804 5804 5805 5806
5668 5670 5672 5675 5679 5683 5687 5690 5693 5695 5696 5697 5700 5700 5700 5700 5701 5703 5707 5708 5707 5707 5708 5712 5715 5716 5718 5721 5725 5729 5732 5736 5742 5746 5750 5754 5757 5761 5764 5768 5772 5776 5779 5782 5784 5786 5788 5790 5791 5792 5793 5794 5795 5797 5797 5798 5797 5797 5798 5799 5800 5801 5801
5662 5664 5668 5673 5677 5679 5683 5685 5688 5690 5691 5692 5694 5694 5695 5695 5696 5698 5702 5705 5706 5705 5705 5708 5712 5715 5718 5720 5723 5726 5730 5734 5738 5742 5746 5750 5753 5756 5760 5763 5767 5771 5773 5776 5778 5780 5782 5783 5785 5786 5787 5787 5788 5789 5790 5789 5790 5792 5793 5795 5796 5796 5795
5659 5662 5667 5671 5673 5676 5679 5681 5683 5685 5686 5687 5688 5690 5691 5691 5692 5694 5698 5701 5703 5702 5703 5705 5708 5711 5714 5717 5720 5723 5727 5731 5734 5738 5742 5745 5748 5751 5755 5758 5761 5765 5767 5770 5772 5773 5775 5777 5778 5779 5780 5780 5781 5783 5783 5783 5785 5787 5788 5789 5790 5790 5789
5657 5660 5664 5667 5670 5673 5675 5677 5678 5679 5680 5682 5684 5685 5687 5688 5689 5692 5695 5696 5697 5699 5701 5704 5706 5708 5710 5712 5716 5719 5723 5727 5731 5734 5737 5741 5744 5747 5750 5752 5755 5758 5760 5763 5765 5767 5769 5771 5772 5773 5774 5775 5776 5777 5778 5779 5780 5781 5782 5783 5783 5783 5782
5655 5658 5661 5664 5667 5669 5671 5673 5674 5674 5676 5678 5679 5681 5683 5684 5686 5689 5691 5693 5695 5697 5699 5702 5704 5706 5708 5710 5712 5715 5719 5723 5727 5730 5732 5735 5739 5741 5744 5747 5749 5752 5754 5757 5759 5761 5763 5765 5766 5767 5768 5769 5770 5771 5772 5774 5775 5776 5777 5777 5777 5777 5776
5651 5655 5658 5661 5664 5666 5667 5669 5670 5671 5672 5674 5676 5678 5680 5681 5684 5686 5688 5690 5693 5695 5696 5698 5701 5704 5706 5708 5710 5713 5716 5720 5723 5725 5727 5729 5731 5735 5738 5741 5743 5746 5748 5751 5753 5756 5758 5759 5761 5762 5763 5764 5764 5766 5767 5768 5769 5770 5771 5771 5771 5770 5770